• In Romania
  • List of Countries
  • For 7 days
  • Water Temperature
  • Satellite Maps
  • Weather Map
  • Weather Widgets
  • user-avatar
    Login

    Hourly Weather Salzburg

    Today, 23 January, Tuesday

    Time Temperature Precipitation Wind Pressure Humidity
    00:00 -3°C° 0.8 mm 2 mps 622 mmHg 98%
    01:00 -3°C° 0 mm 2 mps 623 mmHg 97%
    02:00 -3°C° 0.7 mm 2 mps 623 mmHg 97%
    03:00 -4°C° 0.7 mm 2 mps 624 mmHg 97%
    04:00 -5°C° 0.7 mm 3 mps 624 mmHg 96%
    05:00 -4°C° 1.1 mm 2 mps 624 mmHg 96%
    06:00 -4°C° 1.1 mm 2 mps 625 mmHg 96%
    07:00 -5°C° 0 mm 2 mps 625 mmHg 96%
    08:00 -5°C° 0.7 mm 2 mps 626 mmHg 96%
    09:00 -4°C° 0.7 mm 2 mps 627 mmHg 95%
    10:00 -4°C° 0.7 mm 2 mps 627 mmHg 95%
    11:00 -4°C° 0.2 mm 2 mps 627 mmHg 94%
    12:00 -3°C° 0.2 mm 2 mps 628 mmHg 93%
    13:00 -3°C° 0.2 mm 2 mps 628 mmHg 93%
    14:00 -3°C° 0 mm 2 mps 628 mmHg 93%
    15:00 -2°C° 0 mm 1 mps 629 mmHg 93%
    16:00 -2°C° 0 mm 1 mps 629 mmHg 94%
    17:00 -3°C° 0 mm 1 mps 628 mmHg 92%
    18:00 -4°C° 0 mm 1 mps 628 mmHg 90%
    19:00 -8°C° 0 mm 2 mps 628 mmHg 88%
    20:00 -8°C° 0 mm 2 mps 628 mmHg 84%
    21:00 -8°C° 0 mm 2 mps 628 mmHg 80%
    22:00 -8°C° 0 mm 2 mps 628 mmHg 76%
    23:00 -8°C° 0 mm 2 mps 629 mmHg 74%

    Tomorrow, 24 January, Wednesday

    Time Temperature Precipitation Wind Pressure Humidity
    00:00 -8°C° 0 mm 2 mps 629 mmHg 72%
    01:00 -8°C° 0 mm 2 mps 629 mmHg 70%
    02:00 -8°C° 0 mm 2 mps 629 mmHg 68%
    03:00 -8°C° 0 mm 2 mps 629 mmHg 67%
    04:00 -8°C° 0 mm 2 mps 629 mmHg 66%
    05:00 -7°C° 0 mm 2 mps 629 mmHg 66%
    06:00 -7°C° 0 mm 2 mps 629 mmHg 65%
    07:00 -7°C° 0 mm 2 mps 629 mmHg 65%
    08:00 -6°C° 0 mm 2 mps 630 mmHg 68%
    09:00 -2°C° 0 mm 1 mps 630 mmHg 71%
    10:00 0°C° 0 mm 1 mps 631 mmHg 74%
    11:00 0°C° 0 mm 1 mps 630 mmHg 79%
    12:00 +1°C° 0 mm 1 mps 630 mmHg 84%
    13:00 +2°C° 0 mm 1 mps 630 mmHg 89%
    14:00 +2°C° 0 mm 1 mps 630 mmHg 88%
    15:00 +1°C° 0 mm 1 mps 629 mmHg 86%
    16:00 -1°C° 0 mm 2 mps 629 mmHg 84%
    17:00 -3°C° 0 mm 2 mps 629 mmHg 81%
    18:00 -4°C° 0 mm 2 mps 628 mmHg 79%
    19:00 -5°C° 0 mm 2 mps 628 mmHg 76%
    20:00 -5°C° 0 mm 2 mps 628 mmHg 74%
    21:00 -6°C° 0 mm 2 mps 628 mmHg 73%
    22:00 -6°C° 0 mm 2 mps 627 mmHg 72%
    23:00 -6°C° 0 mm 2 mps 627 mmHg 71%

    Day after tomorrow, 25 January, Thursday

    Time Temperature Precipitation Wind Pressure Humidity
    00:00 -6°C° 0 mm 2 mps 627 mmHg 71%
    01:00 -6°C° 0 mm 2 mps 627 mmHg 70%
    02:00 -6°C° 0 mm 2 mps 627 mmHg 69%
    03:00 -6°C° 0 mm 2 mps 627 mmHg 69%
    04:00 -6°C° 0 mm 2 mps 626 mmHg 68%
    05:00 -6°C° 0 mm 2 mps 626 mmHg 68%
    06:00 -6°C° 0 mm 2 mps 626 mmHg 68%
    07:00 -6°C° 0 mm 2 mps 626 mmHg 68%
    08:00 -5°C° 0 mm 2 mps 626 mmHg 71%
    09:00 -4°C° 0 mm 2 mps 626 mmHg 74%
    10:00 -2°C° 0 mm 2 mps 627 mmHg 76%
    11:00 -2°C° 0 mm 2 mps 626 mmHg 81%
    12:00 -1°C° 0 mm 2 mps 626 mmHg 85%
    13:00 +1°C° 0 mm 2 mps 625 mmHg 90%
    14:00 -1°C° 0 mm 2 mps 625 mmHg 90%
    15:00 -1°C° 0 mm 2 mps 624 mmHg 91%
    16:00 -2°C° 0 mm 2 mps 624 mmHg 91%
    17:00 -3°C° 0 mm 2 mps 623 mmHg 91%
    18:00 -4°C° 0 mm 2 mps 623 mmHg 90%
    19:00 -5°C° 0 mm 2 mps 623 mmHg 90%
    20:00 -5°C° 0 mm 2 mps 623 mmHg 89%
    21:00 -5°C° 0 mm 2 mps 623 mmHg 89%
    22:00 -5°C° 0 mm 2 mps 622 mmHg 89%
    23:00 -5°C° 0 mm 2 mps 622 mmHg 89%

    26 January, Friday

    Time Temperature Precipitation Wind Pressure Humidity
    00:00 -5°C° 0 mm 2 mps 622 mmHg 89%
    01:00 -6°C° 0 mm 2 mps 622 mmHg 88%
    02:00 -5°C° 0 mm 2 mps 621 mmHg 88%
    03:00 -5°C° 0 mm 2 mps 621 mmHg 88%
    04:00 -5°C° 0 mm 2 mps 621 mmHg 88%
    05:00 -5°C° 0 mm 2 mps 621 mmHg 89%
    06:00 -5°C° 0 mm 2 mps 621 mmHg 89%
    07:00 -5°C° 0 mm 2 mps 621 mmHg 89%
    08:00 -4°C° 0 mm 2 mps 622 mmHg 90%
    09:00 -3°C° 0 mm 2 mps 622 mmHg 91%
    10:00 -2°C° 0 mm 2 mps 623 mmHg 91%
    11:00 -2°C° 0 mm 2 mps 623 mmHg 92%
    12:00 -2°C° 0 mm 2 mps 623 mmHg 93%
    13:00 -1°C° 0 mm 2 mps 623 mmHg 94%
    14:00 -1°C° 0.1 mm 2 mps 623 mmHg 95%
    15:00 -2°C° 0.1 mm 2 mps 623 mmHg 96%
    16:00 -2°C° 0.1 mm 2 mps 624 mmHg 97%
    17:00 -1°C° 0.4 mm 1 mps 624 mmHg 97%
    18:00 -1°C° 0.4 mm 1 mps 624 mmHg 97%
    19:00 -1°C° 0.4 mm 1 mps 624 mmHg 97%
    20:00 -2°C° 0.8 mm 1 mps 625 mmHg 97%
    21:00 -2°C° 0.8 mm 1 mps 625 mmHg 97%
    22:00 -2°C° 0.8 mm 1 mps 625 mmHg 97%
    23:00 -2°C° 1 mm 1 mps 626 mmHg 97%

    27 January, Saturday

    Time Temperature Precipitation Wind Pressure Humidity
    00:00 -2°C° 1 mm 1 mps 626 mmHg 97%
    01:00 -3°C° 1 mm 1 mps 626 mmHg 97%
    02:00 -3°C° 1 mm 1 mps 626 mmHg 97%
    03:00 -3°C° 1 mm 1 mps 626 mmHg 97%
    04:00 -3°C° 1 mm 1 mps 626 mmHg 97%
    05:00 -3°C° 0.8 mm 1 mps 627 mmHg 97%
    06:00 -4°C° 0.8 mm 1 mps 627 mmHg 97%
    07:00 -4°C° 0.8 mm 1 mps 627 mmHg 97%
    08:00 -3°C° 0.5 mm 1 mps 628 mmHg 96%
    09:00 -3°C° 0.5 mm 1 mps 628 mmHg 96%
    10:00 -3°C° 0.5 mm 1 mps 629 mmHg 95%
    11:00 -2°C° 0.2 mm 1 mps 629 mmHg 95%
    12:00 -2°C° 0.2 mm 1 mps 630 mmHg 94%
    13:00 -1°C° 0.2 mm 1 mps 630 mmHg 93%
    14:00 -1°C° 0.1 mm 1 mps 630 mmHg 94%
    15:00 -1°C° 0.1 mm 1 mps 630 mmHg 94%
    16:00 -1°C° 0.1 mm 1 mps 630 mmHg 94%
    17:00 -2°C° 0 mm 1 mps 630 mmHg 95%
    18:00 -2°C° 0 mm 1 mps 631 mmHg 96%
    19:00 -4°C° 0 mm 0 mps 631 mmHg 97%
    20:00 -4°C° 0 mm 0 mps 631 mmHg 96%
    21:00 -5°C° 0 mm 0 mps 631 mmHg 95%
    22:00 -4°C° 0 mm 1 mps 631 mmHg 94%
    23:00 -4°C° 0 mm 1 mps 631 mmHg 94%

    28 January, Sunday

    Time Temperature Precipitation Wind Pressure Humidity
    00:00 -6°C° 0 mm 1 mps 631 mmHg 93%
    01:00 -6°C° 0 mm 1 mps 631 mmHg 92%
    02:00 -6°C° 0 mm 1 mps 631 mmHg 91%
    03:00 -6°C° 0 mm 1 mps 631 mmHg 90%
    04:00 -6°C° 0 mm 1 mps 631 mmHg 89%
    05:00 -6°C° 0 mm 1 mps 631 mmHg 88%
    06:00 -6°C° 0 mm 1 mps 631 mmHg 87%
    07:00 -6°C° 0 mm 1 mps 632 mmHg 86%
    08:00 -4°C° 0 mm 1 mps 632 mmHg 85%
    09:00 -2°C° 0 mm 1 mps 633 mmHg 85%
    10:00 -1°C° 0 mm 1 mps 634 mmHg 84%
    11:00 0°C° 0 mm 1 mps 634 mmHg 86%
    12:00 0°C° 0 mm 1 mps 634 mmHg 88%
    13:00 +1°C° 0 mm 1 mps 634 mmHg 90%
    14:00 +1°C° 0 mm 1 mps 633 mmHg 91%
    15:00 0°C° 0 mm 1 mps 633 mmHg 91%
    16:00 0°C° 0 mm 1 mps 633 mmHg 91%
    17:00 0°C° 0 mm 1 mps 633 mmHg 88%
    18:00 -3°C° 0 mm 2 mps 633 mmHg 85%
    19:00 -4°C° 0 mm 2 mps 633 mmHg 82%
    20:00 -4°C° 0.1 mm 2 mps 634 mmHg 82%
    21:00 -3°C° 0.1 mm 2 mps 634 mmHg 82%
    22:00 -3°C° 0.1 mm 2 mps 634 mmHg 81%
    23:00 -3°C° 0.1 mm 2 mps 634 mmHg 83%
    Show more